| time (UTC) | temp F | wind direction | speed MPH | gust MPH | rain 1hr in | rain 24hr in | rain mn in | humidity % | barometer mb |
| 20260504035814 | 54 | 32 | 9.0 | 15.0 | 0.00 | 0.00 | 0.00 | 43 | 1013.9 |
| 20260504035312 | 54 | 352 | 13.0 | 18.0 | 0.00 | 0.00 | 0.00 | 42 | 1014.1 |
| 20260504035041 | 55 | 352 | 12.0 | 22.0 | 0.00 | 0.00 | 0.00 | 41 | 1013.9 |
| 20260504034312 | 55 | 9 | 12.0 | 22.0 | 0.00 | 0.00 | 0.00 | 41 | 1013.9 |
| 20260504033810 | 55 | 9 | 13.0 | 20.0 | 0.00 | 0.00 | 0.00 | 39 | 1013.8 |
| 20260504033304 | 55 | 9 | 13.0 | 20.0 | 0.00 | 0.00 | 0.00 | 38 | 1013.7 |
| 20260504033019 | 55 | 5 | 12.0 | 18.0 | 0.00 | 0.00 | 0.00 | 38 | 1013.5 |
| 20260504032524 | 55 | 0 | 9.0 | 17.0 | 0.00 | 0.00 | 0.00 | 38 | 1013.4 |
| 20260504031757 | 56 | 0 | 7.0 | 15.0 | 0.00 | 0.00 | 0.00 | 37 | 1013.1 |
| 20260504031253 | 56 | 22 | 6.0 | 15.0 | 0.00 | 0.00 | 0.00 | 37 | 1012.9 |
| 20260504031015 | 56 | 23 | 9.0 | 16.0 | 0.00 | 0.00 | 0.00 | 37 | 1012.9 |
| 20260504030249 | 56 | 40 | 7.0 | 16.0 | 0.00 | 0.00 | 0.00 | 36 | 1012.6 |
| 20260504025747 | 56 | 38 | 8.0 | 16.0 | 0.00 | 0.00 | 0.00 | 36 | 1012.6 |
| 20260504025253 | 56 | 5 | 8.0 | 16.0 | 0.00 | 0.00 | 0.00 | 36 | 1012.4 |
| 20260504024755 | 57 | 22 | 13.0 | 18.0 | 0.00 | 0.00 | 0.00 | 35 | 1012.3 |
| 20260504024246 | 57 | 36 | 12.0 | 18.0 | 0.00 | 0.00 | 0.00 | 35 | 1012.1 |
| 20260504024020 | 57 | 49 | 11.0 | 18.0 | 0.00 | 0.00 | 0.00 | 35 | 1012.1 |
| 20260504023246 | 58 | 26 | 10.0 | 18.0 | 0.00 | 0.00 | 0.00 | 35 | 1011.9 |
| 20260504023003 | 58 | 350 | 13.0 | 18.0 | 0.00 | 0.00 | 0.00 | 34 | 1011.7 |
| 20260504022241 | 58 | 32 | 11.0 | 21.0 | 0.00 | 0.00 | 0.00 | 34 | 1011.6 |
| 20260504021739 | 58 | 16 | 12.0 | 22.0 | 0.00 | 0.00 | 0.00 | 34 | 1011.5 |
| 20260504021234 | 58 | 10 | 14.0 | 22.0 | 0.00 | 0.00 | 0.00 | 33 | 1011.5 |
| 20260504020727 | 59 | 40 | 11.0 | 19.0 | 0.00 | 0.00 | 0.00 | 33 | 1011.4 |
| 20260504020229 | 59 | 344 | 10.0 | 19.0 | 0.00 | 0.00 | 0.00 | 33 | 1011.2 |
| 20260504015729 | 59 | 44 | 12.0 | 23.0 | 0.00 | 0.00 | 0.00 | 33 | 1011.3 |
| 20260504015226 | 60 | 0 | 13.0 | 23.0 | 0.00 | 0.00 | 0.00 | 33 | 1011.0 |
| 20260504014724 | 60 | 17 | 13.0 | 22.0 | 0.00 | 0.00 | 0.00 | 33 | 1011.0 |
| 20260504014716 | 60 | 352 | 13.0 | 21.0 | 0.00 | 0.00 | 0.00 | 33 | 1010.8 |
| 20260504013719 | 60 | 53 | 13.0 | 21.0 | 0.00 | 0.00 | 0.00 | 33 | 1010.8 |
| 20260504013218 | 61 | 0 | 9.0 | 22.0 | 0.00 | 0.00 | 0.00 | 32 | 1010.8 |
| 20260504012725 | 61 | 11 | 12.0 | 22.0 | 0.00 | 0.00 | 0.00 | 32 | 1010.8 |
| 20260504012213 | 61 | 348 | 13.0 | 24.0 | 0.00 | 0.00 | 0.00 | 32 | 1010.7 |
| 20260504011709 | 62 | 0 | 14.0 | 24.0 | 0.00 | 0.00 | 0.00 | 31 | 1010.6 |
| 20260504011202 | 62 | 30 | 12.0 | 24.0 | 0.00 | 0.00 | 0.00 | 31 | 1010.5 |
| 20260504010701 | 62 | 5 | 14.0 | 24.0 | 0.00 | 0.00 | 0.00 | 31 | 1010.4 |
| 20260504010157 | 63 | 22 | 13.0 | 21.0 | 0.00 | 0.00 | 0.00 | 30 | 1010.4 |
| 20260504005928 | 64 | 17 | 11.0 | 23.0 | 0.00 | 0.00 | 0.00 | 30 | 1010.5 |
| 20260504005159 | 64 | 5 | 12.0 | 24.0 | 0.00 | 0.00 | 0.00 | 30 | 1010.3 |
| 20260504004653 | 65 | 16 | 15.0 | 25.0 | 0.00 | 0.00 | 0.00 | 30 | 1010.2 |
| 20260504004419 | 65 | 41 | 14.0 | 25.0 | 0.00 | 0.00 | 0.00 | 30 | 1010.2 |
| 20260504003918 | 65 | 22 | 13.0 | 21.0 | 0.00 | 0.00 | 0.00 | 30 | 1010.0 |
| 20260504003144 | 66 | 20 | 13.0 | 24.0 | 0.00 | 0.00 | 0.00 | 30 | 1010.0 |
| 20260504002645 | 67 | 352 | 12.0 | 24.0 | 0.00 | 0.00 | 0.00 | 29 | 1010.0 |
| 20260504002407 | 67 | 40 | 13.0 | 20.0 | 0.00 | 0.00 | 0.00 | 29 | 1009.9 |
| 20260504001858 | 67 | 22 | 10.0 | 19.0 | 0.00 | 0.00 | 0.00 | 30 | 1009.8 |
| 20260504001135 | 67 | 9 | 10.0 | 20.0 | 0.00 | 0.00 | 0.00 | 29 | 1009.7 |
| 20260504000630 | 68 | 39 | 13.0 | 24.0 | 0.00 | 0.00 | 0.00 | 28 | 1009.6 |
| 20260504000129 | 68 | 334 | 14.0 | 24.0 | 0.00 | 0.00 | 0.00 | 28 | 1009.6 |
| 20260503235625 | 69 | 350 | 17.0 | 24.0 | 0.00 | 0.00 | 0.00 | 29 | 1009.6 |
| 20260503235124 | 69 | 5 | 15.0 | 22.0 | 0.00 | 0.00 | 0.00 | 29 | 1009.4 |
| 20260503234622 | 69 | 5 | 16.0 | 21.0 | 0.00 | 0.00 | 0.00 | 28 | 1009.3 |
| 20260503234617 | 69 | 18 | 10.0 | 20.0 | 0.00 | 0.00 | 0.00 | 28 | 1009.2 |
| 20260503233840 | 69 | 34 | 13.0 | 20.0 | 0.00 | 0.00 | 0.00 | 29 | 1009.0 |
| 20260503233113 | 69 | 16 | 13.0 | 20.0 | 0.00 | 0.00 | 0.00 | 28 | 1009.2 |
| 20260503232604 | 69 | 24 | 11.0 | 22.0 | 0.00 | 0.00 | 0.00 | 29 | 1009.2 |
| 20260503232106 | 69 | 352 | 12.0 | 22.0 | 0.00 | 0.00 | 0.00 | 29 | 1009.0 |
| 20260503231606 | 69 | 26 | 13.0 | 21.0 | 0.00 | 0.00 | 0.00 | 30 | 1009.2 |
| 20260503231104 | 69 | 5 | 16.0 | 23.0 | 0.00 | 0.00 | 0.00 | 30 | 1009.0 |
| 20260503230555 | 69 | 351 | 18.0 | 27.0 | 0.00 | 0.00 | 0.00 | 30 | 1009.0 |
| 20260503230055 | 69 | 12 | 19.0 | 27.0 | 0.00 | 0.00 | 0.00 | 30 | 1009.2 |
| 20260503225552 | 69 | 348 | 14.0 | 24.0 | 0.00 | 0.00 | 0.00 | 30 | 1009.0 |
| 20260503225050 | 69 | 352 | 18.0 | 24.0 | 0.00 | 0.00 | 0.00 | 30 | 1008.9 |
| 20260503224546 | 69 | 352 | 14.0 | 24.0 | 0.00 | 0.00 | 0.00 | 30 | 1008.9 |
| 20260503224044 | 69 | 344 | 14.0 | 23.0 | 0.00 | 0.00 | 0.00 | 30 | 1009.2 |
| 20260503223807 | 69 | 5 | 16.0 | 21.0 | 0.00 | 0.00 | 0.00 | 31 | 1009.0 |
| 20260503223045 | 68 | 11 | 15.0 | 25.0 | 0.00 | 0.00 | 0.00 | 30 | 1009.2 |
| 20260503222537 | 68 | 18 | 16.0 | 27.0 | 0.00 | 0.00 | 0.00 | 29 | 1009.2 |
| 20260503222254 | 68 | 29 | 19.0 | 29.0 | 0.00 | 0.00 | 0.00 | 30 | 1009.0 |
| 20260503221538 | 68 | 347 | 10.0 | 29.0 | 0.00 | 0.00 | 0.00 | 30 | 1009.2 |
| 20260503221035 | 68 | 9 | 16.0 | 27.0 | 0.00 | 0.00 | 0.00 | 30 | 1009.2 |
| 20260503220752 | 68 | 5 | 13.0 | 22.0 | 0.00 | 0.00 | 0.00 | 29 | 1009.2 |
| 20260503220034 | 68 | 5 | 15.0 | 23.0 | 0.00 | 0.00 | 0.00 | 30 | 1009.3 |
| 20260503215530 | 68 | 17 | 12.0 | 26.0 | 0.00 | 0.00 | 0.00 | 30 | 1009.2 |
| 20260503215027 | 68 | 12 | 19.0 | 26.0 | 0.00 | 0.00 | 0.00 | 29 | 1009.3 |
| 20260503214530 | 68 | 5 | 15.0 | 23.0 | 0.00 | 0.00 | 0.00 | 30 | 1009.3 |
| 20260503214025 | 68 | 24 | 13.0 | 23.0 | 0.00 | 0.00 | 0.00 | 29 | 1009.2 |
| 20260503213519 | 69 | 5 | 16.0 | 22.0 | 0.00 | 0.00 | 0.00 | 29 | 1009.0 |
| 20260503213239 | 69 | 14 | 12.0 | 25.0 | 0.00 | 0.00 | 0.00 | 29 | 1009.2 |
| 20260503212513 | 70 | 5 | 13.0 | 25.0 | 0.00 | 0.00 | 0.00 | 28 | 1009.2 |
| 20260503212011 | 70 | 15 | 13.0 | 24.0 | 0.00 | 0.00 | 0.00 | 28 | 1009.3 |
| 20260503211510 | 71 | 11 | 18.0 | 24.0 | 0.00 | 0.00 | 0.00 | 27 | 1009.3 |
| 20260503211005 | 71 | 27 | 10.0 | 21.0 | 0.00 | 0.00 | 0.00 | 27 | 1009.2 |
| 20260503210503 | 72 | 18 | 11.0 | 21.0 | 0.00 | 0.00 | 0.00 | 25 | 1009.2 |
| 20260503210010 | 72 | 9 | 13.0 | 23.0 | 0.00 | 0.00 | 0.00 | 26 | 1009.2 |
| 20260503205503 | 73 | 19 | 18.0 | 23.0 | 0.00 | 0.00 | 0.00 | 25 | 1009.3 |
| 20260503205000 | 74 | 351 | 12.0 | 21.0 | 0.00 | 0.00 | 0.00 | 26 | 1009.3 |
| 20260503204457 | 74 | 5 | 16.0 | 21.0 | 0.00 | 0.00 | 0.00 | 25 | 1009.4 |
| 20260503203957 | 74 | 34 | 15.0 | 21.0 | 0.00 | 0.00 | 0.00 | 25 | 1009.4 |
| 20260503203450 | 73 | 327 | 12.0 | 22.0 | 0.00 | 0.00 | 0.00 | 27 | 1009.5 |
| 20260503202947 | 73 | 331 | 14.0 | 23.0 | 0.00 | 0.00 | 0.00 | 25 | 1009.5 |
| 20260503202446 | 73 | 350 | 12.0 | 23.0 | 0.00 | 0.00 | 0.00 | 25 | 1009.4 |
| 20260503201947 | 74 | 342 | 15.0 | 20.0 | 0.00 | 0.00 | 0.00 | 25 | 1009.5 |
| 20260503201443 | 74 | 26 | 15.0 | 22.0 | 0.00 | 0.00 | 0.00 | 25 | 1009.6 |
| 20260503200938 | 73 | 331 | 13.0 | 23.0 | 0.00 | 0.00 | 0.00 | 27 | 1009.8 |
| 20260503200711 | 73 | 348 | 15.0 | 23.0 | 0.00 | 0.00 | 0.00 | 26 | 1009.8 |
| 20260503200158 | 73 | 346 | 12.0 | 22.0 | 0.00 | 0.00 | 0.00 | 28 | 1009.8 |
| 20260503195429 | 72 | 336 | 12.0 | 21.0 | 0.00 | 0.00 | 0.00 | 26 | 1009.9 |
| 20260503194923 | 72 | 352 | 14.0 | 25.0 | 0.00 | 0.00 | 0.00 | 26 | 1010.0 |
| 20260503194902 | 72 | 323 | 14.0 | 25.0 | 0.00 | 0.00 | 0.00 | 27 | 1010.2 |
| 20260503194145 | 71 | 0 | 16.0 | 23.0 | 0.00 | 0.00 | 0.00 | 27 | 1010.2 |
| 20260503193420 | 72 | 0 | 13.0 | 24.0 | 0.00 | 0.00 | 0.00 | 26 | 1010.3 |
| 20260503193142 | 71 | 0 | 17.0 | 24.0 | 0.00 | 0.00 | 0.00 | 26 | 1010.2 |
| 20260503192640 | 71 | 15 | 14.0 | 19.0 | 0.00 | 0.00 | 0.00 | 26 | 1010.3 |
| 20260503191914 | 71 | 347 | 11.0 | 22.0 | 0.00 | 0.00 | 0.00 | 26 | 1010.4 |
| 20260503191407 | 71 | 319 | 18.0 | 22.0 | 0.00 | 0.00 | 0.00 | 27 | 1010.4 |
| 20260503190907 | 71 | 0 | 9.0 | 21.0 | 0.00 | 0.00 | 0.00 | 26 | 1010.5 |
| 20260503190403 | 71 | 331 | 12.0 | 23.0 | 0.00 | 0.00 | 0.00 | 26 | 1010.5 |
| 20260503185900 | 71 | 329 | 15.0 | 23.0 | 0.00 | 0.00 | 0.00 | 27 | 1010.7 |
| 20260503185356 | 70 | 327 | 10.0 | 20.0 | 0.00 | 0.00 | 0.00 | 29 | 1010.7 |
| 20260503184856 | 70 | 332 | 15.0 | 20.0 | 0.00 | 0.00 | 0.00 | 28 | 1010.8 |
| 20260503184351 | 69 | 352 | 16.0 | 19.0 | 0.00 | 0.00 | 0.00 | 28 | 1010.9 |
| 20260503183851 | 69 | 5 | 14.0 | 22.0 | 0.00 | 0.00 | 0.00 | 28 | 1011.0 |
| 20260503183350 | 69 | 30 | 15.0 | 31.0 | 0.00 | 0.00 | 0.00 | 28 | 1011.0 |
| 20260503183118 | 69 | 347 | 21.0 | 31.0 | 0.00 | 0.00 | 0.00 | 28 | 1011.2 |
| 20260503182344 | 69 | 333 | 18.0 | 23.0 | 0.00 | 0.00 | 0.00 | 29 | 1011.0 |
| 20260503181845 | 68 | 352 | 15.0 | 25.0 | 0.00 | 0.00 | 0.00 | 29 | 1011.2 |
| 20260503181339 | 68 | 5 | 19.0 | 25.0 | 0.00 | 0.00 | 0.00 | 28 | 1011.3 |
| 20260503180835 | 68 | 14 | 15.0 | 24.0 | 0.00 | 0.00 | 0.00 | 29 | 1011.3 |
| 20260503180331 | 68 | 0 | 14.0 | 23.0 | 0.00 | 0.00 | 0.00 | 29 | 1011.4 |
| 20260503175833 | 67 | 332 | 13.0 | 23.0 | 0.00 | 0.00 | 0.00 | 30 | 1011.5 |
| 20260503175328 | 67 | 15 | 15.0 | 24.0 | 0.00 | 0.00 | 0.00 | 29 | 1011.5 |
| 20260503174825 | 67 | 5 | 19.0 | 24.0 | 0.00 | 0.00 | 0.00 | 28 | 1011.6 |
| 20260503174323 | 68 | 26 | 11.0 | 24.0 | 0.00 | 0.00 | 0.00 | 31 | 1011.6 |
| 20260503173819 | 67 | 0 | 12.0 | 24.0 | 0.00 | 0.00 | 0.00 | 29 | 1011.6 |
| 20260503173320 | 67 | 345 | 16.0 | 26.0 | 0.00 | 0.00 | 0.00 | 30 | 1011.6 |
| 20260503172822 | 67 | 13 | 18.0 | 26.0 | 0.00 | 0.00 | 0.00 | 29 | 1011.6 |
| 20260503172318 | 67 | 352 | 13.0 | 22.0 | 0.00 | 0.00 | 0.00 | 29 | 1011.6 |
| 20260503171823 | 67 | 344 | 16.0 | 24.0 | 0.00 | 0.00 | 0.00 | 29 | 1011.6 |
| 20260503171319 | 66 | 351 | 17.0 | 24.0 | 0.00 | 0.00 | 0.00 | 30 | 1011.8 |
| 20260503170816 | 66 | 347 | 18.0 | 25.0 | 0.00 | 0.00 | 0.00 | 30 | 1011.7 |
| 20260503170534 | 65 | 351 | 16.0 | 25.0 | 0.00 | 0.00 | 0.00 | 30 | 1011.9 |
| 20260503150719 | 58 | 284 | 8.0 | 10.0 | 0.00 | 0.00 | 0.00 | 37 | 1012.0 |
| 20260503150222 | 58 | 286 | 8.0 | 10.0 | 0.00 | 0.00 | 0.00 | 37 | 1012.0 |
| 20260503140151 | 51 | 269 | 9.0 | 12.0 | 0.00 | 0.00 | 0.00 | 40 | 1012.0 |
| 20260503131133 | 48 | 293 | 8.0 | 13.0 | 0.00 | 0.00 | 0.00 | 44 | 1012.4 |
| 20260503130900 | 49 | 327 | 9.0 | 13.0 | 0.00 | 0.00 | 0.00 | 42 | 1012.4 |
| 20260503130130 | 48 | 287 | 10.0 | 13.0 | 0.00 | 0.00 | 0.00 | 41 | 1012.3 |
| 20260503120109 | 46 | 289 | 9.0 | 11.0 | 0.00 | 0.00 | 0.00 | 42 | 1012.3 |
| 20260503110544 | 45 | 280 | 9.0 | 11.0 | 0.00 | 0.00 | 0.00 | 43 | 1012.6 |
| 20260503090454 | 43 | 286 | 6.0 | 10.0 | 0.00 | 0.00 | 0.00 | 46 | 1012.7 |
| 20260503080938 | 42 | 302 | 7.0 | 9.0 | 0.00 | 0.00 | 0.00 | 51 | 1012.7 |
| 20260503080435 | 42 | 294 | 7.0 | 10.0 | 0.00 | 0.00 | 0.00 | 51 | 1012.8 |
| 20260503072917 | 43 | 294 | 8.0 | 11.0 | 0.00 | 0.00 | 0.00 | 52 | 1012.8 |
| 20260503072417 | 43 | 300 | 9.0 | 12.0 | 0.00 | 0.00 | 0.00 | 52 | 1012.8 |
| 20260503071916 | 44 | 297 | 10.0 | 12.0 | 0.00 | 0.00 | 0.00 | 49 | 1012.8 |
| 20260503071414 | 45 | 300 | 11.0 | 12.0 | 0.00 | 0.00 | 0.00 | 48 | 1012.8 |
| 20260503070914 | 45 | 304 | 10.0 | 12.0 | 0.00 | 0.00 | 0.00 | 47 | 1012.8 |
| 20260503070413 | 45 | 298 | 9.0 | 13.0 | 0.00 | 0.00 | 0.00 | 47 | 1012.8 |
| 20260503070130 | 44 | 288 | 11.0 | 13.0 | 0.00 | 0.00 | 0.00 | 46 | 1012.8 |
| 20260503055116 | 47 | 296 | 8.0 | 11.0 | 0.00 | 0.00 | 0.00 | 48 | 1012.7 |
| 20260503054611 | 47 | 290 | 9.0 | 10.0 | 0.00 | 0.00 | 0.00 | 46 | 1012.7 |
| 20260503053848 | 47 | 287 | 9.0 | 10.0 | 0.00 | 0.00 | 0.00 | 47 | 1012.7 |
| 20260503053347 | 47 | 286 | 6.0 | 9.0 | 0.00 | 0.00 | 0.00 | 48 | 1012.7 |
| 20260503052847 | 48 | 298 | 6.0 | 9.0 | 0.00 | 0.00 | 0.00 | 48 | 1012.7 |
| 20260503052348 | 48 | 298 | 8.0 | 9.0 | 0.00 | 0.00 | 0.00 | 48 | 1012.6 |
| 20260503051846 | 48 | 311 | 8.0 | 10.0 | 0.00 | 0.00 | 0.00 | 48 | 1012.5 |
| 20260503051345 | 48 | 301 | 7.0 | 10.0 | 0.00 | 0.00 | 0.00 | 48 | 1012.5 |
| 20260503050841 | 48 | 302 | 8.0 | 11.0 | 0.00 | 0.00 | 0.00 | 49 | 1012.5 |
| 20260503050341 | 49 | 286 | 9.0 | 11.0 | 0.00 | 0.00 | 0.00 | 49 | 1012.5 |
| 20260503045838 | 49 | 292 | 9.0 | 11.0 | 0.00 | 0.00 | 0.00 | 48 | 1012.4 |
| 20260503045336 | 50 | 299 | 9.0 | 11.0 | 0.00 | 0.00 | 0.00 | 49 | 1012.5 |
| 20260503044836 | 50 | 302 | 9.0 | 12.0 | 0.00 | 0.00 | 0.00 | 47 | 1012.4 |
| 20260503044333 | 50 | 297 | 9.0 | 13.0 | 0.00 | 0.00 | 0.00 | 45 | 1012.5 |
| 20260503044048 | 50 | 284 | 10.0 | 13.0 | 0.00 | 0.00 | 0.00 | 46 | 1012.4 |
| 20260503043326 | 50 | 283 | 9.0 | 11.0 | 0.00 | 0.00 | 0.00 | 49 | 1012.3 |
| 20260503042823 | 51 | 296 | 7.0 | 10.0 | 0.00 | 0.00 | 0.00 | 50 | 1012.3 |
| 20260503042322 | 51 | 286 | 7.0 | 8.0 | 0.00 | 0.00 | 0.00 | 51 | 1012.3 |
| 20260503041821 | 52 | 283 | 5.0 | 7.0 | 0.00 | 0.00 | 0.00 | 50 | 1012.3 |
| 20260503041328 | 52 | 294 | 4.0 | 6.0 | 0.00 | 0.00 | 0.00 | 51 | 1012.1 |
| 20260503040819 | 52 | 294 | 4.0 | 6.0 | 0.00 | 0.00 | 0.00 | 51 | 1012.3 |
| 20260503040540 | 53 | 263 | 3.0 | 5.0 | 0.00 | 0.00 | 0.00 | 51 | 1012.3 |